STARLINK-31718 (59556 NORAD) Tracking and Keplerian Element Data

This shows tracking and keplerian element data for the satellite.

Feedback or suggestion? Click here.




ElementValue
Catalog59556
NameSTARLINK-31718
Epoch Orbit779
Epoch Day159.8289946
Epoch Year2024
RAAN28.4692
Inclination43.0023
Eccentricity0.0002276
Argument of Perigee321.8582
Mean Anonmoly38.2113
Mean Motion15.40696932
Decay Rate1.323E-05
L11 59556U 24074Y 24159.82899460 .00001323 00000+0 38955-4 0 9996
L22 59556 43.0023 28.4692 0002276 321.8582 38.2113 15.40696932 7797



Live tracking and technical data element details for STARLINK-31718 (NORAD 59556). STARLINK-31718 can be tracked NOW for your location showing map with azimuth and elevation plus other details from your city location.







IsCatalogInMostPopularTable: catalog: 59556, numindb: 11
Update: records affected: 1



GetName: 59556 STARLINK-31718

Hit Count: updated at: Fri, 14 Jun 2024 18:18:40 GMT